Weather Roundup
Issued by NWS

Home | Current Version | Previous Version | Text Only | Print | Product List | Glossary On
Versions: 1 2 3 4 5 6 7 8 9 10 11 12 13 14 15 16 17 18 19 20 21 22 23 24 25 26 27 28 29 30 31 32 33 34 35 36 37 38 39 40 41 42 43 44 45 46 47 48 49 50
000
NZUS93 KARX 181310
HRRWXR

CURRENT HOURLY OBSERVATIONS ACROSS
MUCH OF THE UPPER MISSISSIPPI VALLEY
NATIONAL WEATHER SERVICE LA CROSSE WI
800 AM CDT WED OCT 18 2017


...SOUTHEAST MINNESOTA...


CITY           SKY/WX    TMP DP  RH WIND       PRES   REMARKS
ROCHESTER      CLEAR     48  45  89 S14       29.90F
ROCHESTER/MAYO FAIR      49  45  84 S13       29.89F
WINONA         CLEAR     52  45  76 CALM      29.92F
AUSTIN         CLEAR     46  43  87 S9        29.90S
ALBERT LEA     CLEAR     52  46  82 S8        29.88F
DODGE CENTER   CLEAR     48  45  87 S15       29.88S
PRESTON        CLEAR     47  43  87 S12       29.93F
OWATONNA       CLEAR     48  45  87 S13G21    29.85F
FARIBAULT      CLEAR     48  45  87 S12       29.84F
$$

...ELSEWHERE IN MINNESOTA...


CITY           SKY/WX    TMP DP  RH WIND       PRES   REMARKS
MINNEAPOLIS    PTCLDY    50  46  86 SE8       29.81F
INTNL FALLS    CLOUDY    59  38  45 SW13      29.54R
DULUTH         CLEAR     52  43  71 SW14      29.73S
RED WING       CLEAR     52  43  71 SE7       29.85F
REDWOOD FALLS  CLEAR     49  43  80 S8        29.74F
MANKATO        CLEAR     48  44  86 S10       29.83F
WORTHINGTON    CLEAR     51  44  77 S13       29.79F
FAIRMONT       CLEAR     46  43  89 S12       29.84F
$$

...SOUTHWEST WISCONSIN...


CITY           SKY/WX    TMP DP  RH WIND       PRES   REMARKS
LA CROSSE      CLEAR     55  46  71 S9        29.95S
PRAIRIE DU CHI CLEAR     52  43  71 SE3       30.01S
BOSCOBEL       CLEAR     43  42  97 CALM      30.02S FOG
LONE ROCK      CLEAR     45  43  93 E3        30.04S
PLATTEVILLE    CLEAR     49  45  85 S12       30.05S
FORT MC COY    CLEAR     52  44  76 S9        29.97S
CAMP DOUGLAS   CLEAR     50  45  81 SE3       29.97F
MAUSTON-NEW LI SUNNY     51  44  77 S9        29.98S
VIROQUA        FAIR      49  45  86 S10       29.98F
WIS DELLS      CLEAR     49  42  75 S10       30.02F
$$

...ELSEWHERE IN WISCONSIN...


CITY           SKY/WX    TMP DP  RH WIND       PRES   REMARKS
MILWAUKEE      CLEAR     51  42  71 SW12      30.11S
MADISON        CLEAR     49  42  77 S8        30.06S
GREEN BAY      CLEAR     51  47  86 S8        30.01S
EAU CLAIRE     CLEAR     50  44  80 S10       29.87F
BLACK RVR FLS  FAIR      41  41 100 S3        29.94F
MEDFORD        CLEAR     46  42  85 S10       29.91F
WAUSAU         CLEAR     49  44  83 S10       29.94F
WIS RAPIDS     CLEAR     50  43  77 S7        29.97F
MARSHFIELD     CLEAR     46  42  86 S7        29.94F
RICE LAKE      CLEAR     47  43  87 SE3       29.86S
$$

...NORTHEAST IOWA...


CITY           SKY/WX    TMP DP  RH WIND       PRES   REMARKS
WATERLOO       CLEAR     48  44  86 S9        29.97F
DUBUQUE        CLEAR     47  42  83 S13       30.04S
DECORAH        CLEAR     50  45  81 S8        29.95F
MASON CITY     CLEAR     47  45  93 S12       29.93F
CHARLES CITY   CLEAR     48  46  93 S9        29.95F
OELWEIN        CLEAR     48  46  93 S13       29.99F
$$

...ELSEWHERE IN IOWA...


CITY           SKY/WX    TMP DP  RH WIND       PRES   REMARKS
DES MOINES     PTCLDY    53  45  74 S12       29.98F
IOWA CITY      CLEAR     49  43  80 S6        30.07S
FORT DODGE     CLEAR     50  45  83 S7        29.92F
MARSHALLTOWN   CLEAR     51  46  83 S10       29.98S
CEDAR RAPIDS   CLEAR     48  44  86 S6        30.04R
$$

...NORTHERN ILLINOIS...


CITY           SKY/WX    TMP DP  RH WIND       PRES   REMARKS
CHICAGO-OHARE  CLEAR     50  42  74 S8        30.15S
CHICAGO-MIDWAY CLEAR     51  42  71 S10       30.17S
MOLINE         CLEAR     51  40  65 S9        30.08S
ROCKFORD       CLEAR     46  41  82 S7        30.13S
PEORIA         CLEAR     47  42  83 S6        30.16S
$$

NOTE: "FAIR" INDICATES FEW OR NO CLOUDS BELOW 12,000 FEET WITH NO
SIGNIFICANT WEATHER AND/OR OBSTRUCTIONS TO VISIBILITY. WIND
SPEEDS ARE IN MILES-PER-HOUR.




USA.gov is the U.S. government's official web portal to all federal, state and local government web resources and services.